Content
SEND FEEDBACK

Daily
Averages
Monthly
Summary
United States of America

MANGILAO, GUAM


Home > North America > United States > Guam
Elevation: 18 meters     Latitude: 13 27N     Longitude: 144 49E

WEATHER
 
SELECT A DAY
Number of Records: 341,964;   Date Range: 1/1/95 - 7/26/14
 
SHARE

PRINT THIS DATA

[ ← Previous Day ]
WEATHER ALMANAC - 7 APRIL, 2014
[ Next Day → ]
[ °F ]   °C
Weather ElementAverageHighLow
Temperature27 °C29.4 °C (10:58 am)25.3 °C (1:58 am)
Dewpoint22.8 °C23.4 °C (11:58 am)22 °C (7:53 pm)
Humidity77.6 %86 % (3:58 am)68 % (1:58 pm)
Barometer1011.2 hPa1012.9 hPa (7:58 am)1009.5 hPa (2:58 pm)
Wind Speed20 km/h24.1 km/h (7:58 am)
Wind Gust33.3 km/h (11:58 am)
Weather ElementAverage
Visibility16.1 km
Wind DirectionENE (69.7 °)

Weather ElementTotal
Precipitation---
Cooling Degree Days9 (Base 18.3)
Growing Degree Days17.3 (Base 10)
Averaged from 35 records on 7 April, 2014
WEATHER CONDITIONS BREAKOUT
WIND DIRECTION BREAKOUT
WEATHER BY HOUR - 7 APRIL, 2014
[ °F ]   °C
Local TimeTemperatureDewpointHumidityBarometerVisibilityWind DirectionWind SpeedGust SpeedPrecipitationEventsConditions
1:58 AM25.3 °C22.3 °C83 %1011.9 hPa16.1 kmENE (60°)18.5 km/hClear
2:58 AM25.4 °C22.5 °C84 %1011.2 hPa16.1 kmENE (60°)14.8 km/hPartly Cloudy
3:58 AM25.3 °C22.8 °C86 %1011.2 hPa16.1 kmENE (60°)14.8 km/hScattered Clouds
4:58 AM25.4 °C22.7 °C85 %1011.2 hPa16.1 kmENE (60°)16.7 km/hScattered Clouds
5:58 AM25.3 °C22.2 °C83 %1011.2 hPa16.1 kmENE (70°)20.4 km/hPartly Cloudy
6:58 AM26.2 °C22.2 °C78 %1011.9 hPa16.1 kmENE (60°)14.8 km/hPartly Cloudy
7:58 AM27 °C22.6 °C77 %1012.9 hPa16.1 kmENE (60°)24.1 km/hScattered Clouds
8:58 AM27.7 °C22.9 °C75 %1012.9 hPa16.1 kmENE (60°)24.1 km/hPartly Cloudy
9:58 AM28.7 °C23.3 °C72 %1012.9 hPa16.1 kmENE (60°)20.4 km/hScattered Clouds
10:58 AM29.4 °C23.3 °C69 %1012.2 hPa16.1 kmNE (40°)24.1 km/hScattered Clouds
11:58 AM28.9 °C23.4 °C72 %1011.5 hPa16.1 kmENE (60°)18.5 km/h33.3 km/hScattered Clouds
12:23 PM29 °C23 °C70 %1012.2 hPa16.1 kmENE (70°)24.1 km/hMostly Cloudy
12:58 PM29.1 °C23.3 °C71 %1010.5 hPa16.1 kmEast (80°)18.5 km/hScattered Clouds
1:23 PM29 °C23 °C70 %1011.2 hPa16.1 kmEast (80°)20.4 km/hMostly Cloudy
1:28 PM28 °C23 °C74 %1011.2 hPa16.1 kmEast (80°)20.4 km/hMostly Cloudy
1:33 PM29 °C23 °C70 %1011.2 hPa16.1 kmEast (80°)20.4 km/hScattered Clouds
1:58 PM29.4 °C23 °C68 %1010.2 hPa16.1 kmEast (90°)20.4 km/hScattered Clouds
2:58 PM28.7 °C22.5 °C69 %1009.5 hPa16.1 kmEast (100°)20.4 km/h29.6 km/hClear
3:58 PM28.4 °C23.2 °C73 %1009.5 hPa16.1 kmEast (90°)20.4 km/hClear
4:28 PM27 °C23 °C79 %1010.5 hPa16.1 kmEast (80°)22.2 km/hScattered Clouds
4:58 PM27.1 °C22.3 °C75 %1009.8 hPa16.1 kmENE (70°)18.5 km/hScattered Clouds
5:33 PM27 °C23 °C79 %1011.2 hPa16.1 kmENE (70°)16.7 km/hMostly Cloudy
5:38 PM27 °C23 °C79 %1011.2 hPa16.1 kmENE (60°)20.4 km/hScattered Clouds
5:58 PM26.8 °C22.5 °C77 %1010.2 hPa16.1 kmENE (60°)24.1 km/hScattered Clouds
6:58 PM26.2 °C22.3 °C79 %1010.5 hPa16.1 kmENE (70°)20.4 km/hPartly Cloudy
7:43 PM26 °C23 °C83 %1011.9 hPa16.1 kmENE (60°)22.2 km/hMostly Cloudy
7:48 PM26 °C23 °C83 %1011.9 hPa16.1 kmENE (70°)18.5 km/hMostly Cloudy
7:53 PM26 °C22 °C78 %1011.9 hPa16.1 kmENE (70°)18.5 km/hScattered Clouds
7:58 PM25.9 °C22.6 °C82 %1011.2 hPa16.1 kmENE (70°)20.4 km/hScattered Clouds
8:28 PM26 °C23 °C83 %1011.9 hPa16.1 kmENE (70°)18.5 km/hMostly Cloudy
8:33 PM26 °C23 °C83 %1011.9 hPa16.1 kmENE (70°)20.4 km/hScattered Clouds
8:58 PM25.9 °C22.8 °C83 %1011.2 hPa16.1 kmENE (70°)22.2 km/hPartly Cloudy
9:58 PM26 °C22.5 °C81 %1011.5 hPa16.1 kmEast (80°)18.5 km/hScattered Clouds
10:58 PM25.8 °C22.6 °C82 %1011.5 hPa16.1 kmENE (70°)22.2 km/hPartly Cloudy
11:58 PM25.9 °C22.4 °C81 %1011.2 hPa16.1 kmEast (80°)20.4 km/hPartly Cloudy
Hourly data recorded from PGUA, located 0 kilometers away from Mangilao, Guam







STORIES FROM OUR PARTNERS